Weather History for KSYR - May, 2011

Change the Weather History Date:

Tuesday, May 24, 2011

  Actual Average Record
Temperature  
Mean Temperature 66 °F 60 °F  
Max Temperature 77 °F 71 °F 89 °F (1964)
Min Temperature 55 °F 49 °F 30 °F (1963)
Degree Days  
Heating Degree Days 0 6  
Month to date heating degree days 140 218  
Since 1 July heating degree days 6589 6553  
Cooling Degree Days 1 1  
Month to date cooling degree days 25 14  
Year to date cooling degree days 37 18  
Growing Degree Days 16 (Base 50)    
Moisture  
Dew Point 59 °F    
Average Humidity 73    
Maximum Humidity 87    
Minimum Humidity 59    
Precipitation  
Precipitation 0.02 in 0.11 in 1.36 in (2003)
Month to date precipitation 3.12 2.47  
Year to date precipitation 18.59 13.18  
Snow  
Snow 0.00 in 0.00 in T in (2013)
Month to date snowfall 0.0 0.1  
Since 1 July snowfall 179.0 123.8  
Snow Depth 0.00 in    
Sea Level Pressure  
Sea Level Pressure 29.73 in    
Wind  
Wind Speed 11 mph (WNW)    
Max Wind Speed 21 mph    
Max Gust Speed 26 mph    
Visibility 10 miles    
Events Rain    
T = Trace of Precipitation, MM = Missing Value Source: NWS Daily Summary

Daily Weather History Graph

Daily Weather History Graph

Search for Another Location

Airport or City:

Trip Planner

Search our weather history database for the weather conditions in past years. The results will help you decide how hot, cold, wet, or windy it might be!

Date:

Astronomy

May. 24, 2011 Rise Set
Actual Time 5:32 AM EDT 8:30 PM EDT
Civil Twilight 4:59 AM EDT 9:03 PM EDT
Nautical Twilight 4:16 AM EDT 9:46 PM EDT
Astronomical Twilight 3:26 AM EDT 10:37 PM EDT
Moon 1:18 AM EDT (5/24) 12:42 PM EDT (5/24)
Length of Visible Light 16h 04m
Length of Day
14h 57m
Waning Gibbous, 51% of the Moon is Illuminated
May 24
Waning Gibbous
May 24
Last Quarter
Jun 1
New
Jun 8
First Quarter
Jun 15
Full

Hourly Weather History & Observations

Time (EDT) Temp. Dew Point Humidity Pressure Visibility Wind Dir Wind Speed Gust Speed Precip Events Conditions
12:54 AM 69.1 °F 60.1 °F 73% 29.65 in 10.0 mi West 19.6 mph 39.1 mph 0.02 in Rain Light Rain
1:54 AM 68.0 °F 62.1 °F 81% 29.64 in 10.0 mi SW 11.5 mph - 0.01 in Rain Light Rain
2:54 AM 64.9 °F 60.1 °F 84% 29.61 in 10.0 mi SSW 9.2 mph - 0.01 in Rain Light Rain
3:54 AM 66.9 °F 60.1 °F 79% 29.65 in 10.0 mi WSW 9.2 mph - 0.00 in   Overcast
4:54 AM 68.0 °F 59.0 °F 73% 29.62 in 10.0 mi West 18.4 mph 23.0 mph N/A   Scattered Clouds
5:54 AM 66.9 °F 60.1 °F 79% 29.65 in 10.0 mi WSW 11.5 mph - N/A   Overcast
6:54 AM 68.0 °F 61.0 °F 78% 29.67 in 10.0 mi West 8.1 mph - N/A   Overcast
7:54 AM 70.0 °F 61.0 °F 73% 29.67 in 10.0 mi WSW 9.2 mph - N/A   Overcast
8:54 AM 71.1 °F 62.1 °F 73% 29.69 in 10.0 mi West 13.8 mph 19.6 mph N/A   Overcast
9:38 AM 71.6 °F 62.6 °F 73% 29.71 in 10.0 mi West 12.7 mph - N/A   Overcast
9:54 AM 72.0 °F 61.0 °F 68% 29.70 in 10.0 mi West 17.3 mph 24.2 mph N/A   Overcast
10:19 AM 71.6 °F 62.6 °F 73% 29.71 in 10.0 mi West 11.5 mph 21.9 mph N/A   Overcast
10:54 AM 71.1 °F 61.0 °F 70% 29.71 in 10.0 mi West 16.1 mph - N/A   Overcast
11:03 AM 71.6 °F 60.8 °F 69% 29.72 in 10.0 mi West 16.1 mph - N/A   Overcast
11:54 AM 75.0 °F 63.0 °F 66% 29.70 in 10.0 mi WSW 13.8 mph 21.9 mph N/A   Mostly Cloudy
12:54 PM 75.9 °F 61.0 °F 60% 29.69 in 10.0 mi WNW 16.1 mph 20.7 mph N/A   Mostly Cloudy
1:27 PM 71.6 °F 60.8 °F 69% 29.72 in 10.0 mi NNW 15.0 mph 25.3 mph 0.00 in   Overcast
1:54 PM 69.1 °F 59.0 °F 70% 29.72 in 10.0 mi NNW 11.5 mph 20.7 mph 0.00 in   Overcast
2:54 PM 75.0 °F 61.0 °F 62% 29.73 in 10.0 mi North 15.0 mph 20.7 mph N/A   Mostly Cloudy
3:54 PM 73.0 °F 59.0 °F 61% 29.76 in 10.0 mi NNW 15.0 mph 21.9 mph N/A   Scattered Clouds
4:54 PM 70.0 °F 55.0 °F 59% 29.78 in 10.0 mi NNW 17.3 mph 23.0 mph N/A   Scattered Clouds
5:54 PM 68.0 °F 54.0 °F 61% 29.80 in 10.0 mi NW 11.5 mph 25.3 mph N/A   Scattered Clouds
6:54 PM 66.0 °F 53.1 °F 63% 29.81 in 10.0 mi NNW 12.7 mph - N/A   Scattered Clouds
7:54 PM 64.0 °F 52.0 °F 65% 29.83 in 10.0 mi WNW 6.9 mph - N/A   Scattered Clouds
8:54 PM 61.0 °F 52.0 °F 72% 29.84 in 10.0 mi NNW 5.8 mph - N/A   Scattered Clouds
9:54 PM 59.0 °F 52.0 °F 78% 29.87 in 10.0 mi WNW 5.8 mph - N/A   Scattered Clouds
10:54 PM 57.0 °F 52.0 °F 83% 29.89 in 10.0 mi WNW 4.6 mph - N/A   Scattered Clouds
11:54 PM 55.9 °F 51.1 °F 84% 29.89 in 10.0 mi West 5.8 mph - N/A   Mostly Cloudy